DateTimeUTC,F1_A11,F1_S11,BsB_S11,BsG_S11,BsR_S11,BbsB_S11,BbsG_S11,BbsR_S11,BaB_A11,BaG_A11,BaR_A11,Tu_S11,T_S11,Uu_S11,U_S11,P_S11,T1_A11
2021-09-04T14:00:00Z,00000200,21000000,,,,,,,0000.17,0000.04,0000.43,19.0,25.5,00.6,00.4,0666.2,31.0
2021-09-04T14:01:00Z,00000200,21000000,,,,,,,0000.23,-000.23,-000.37,19.0,25.5,00.6,00.4,0666.2,31.0
2021-09-04T14:02:00Z,00000200,21000000,,,,,,,-000.06,0000.11,-000.15,18.9,25.6,00.6,00.4,0666.2,31.0
2021-09-04T14:03:00Z,00000200,61000000,,,,,,,0000.23,0000.24,0000.64,18.9,25.5,00.6,00.4,0666.2,31.0
2021-09-04T14:04:00Z,00000200,41000000,0002.79,0001.62,0001.24,0000.77,0000.36,0000.41,0000.56,0000.67,-000.06,19.1,25.4,00.8,00.5,0667.1,31.0
2021-09-04T14:05:00Z,00000200,01000000,0002.85,0001.99,0001.36,-000.03,0000.36,0000.17,0000.84,0000.62,0000.65,19.1,25.3,00.8,00.6,0667.1,31.0
2021-09-04T14:06:00Z,00000200,01000000,0002.58,0001.74,0000.97,0000.64,0000.22,0000.26,0000.70,0000.37,0000.38,19.1,25.3,00.8,00.5,0667.1,31.0
2021-09-04T14:07:00Z,00000200,01000000,0002.28,0001.37,0000.66,0000.07,0000.20,0000.36,0000.43,0000.53,0000.52,19.1,25.3,00.8,00.6,0667.1,31.0
2021-09-04T14:08:00Z,00000200,01000000,0002.14,0001.57,0000.67,0000.45,0000.39,0000.36,0000.79,0000.53,0000.29,19.1,25.3,00.9,00.6,0667.1,31.0
2021-09-04T14:09:00Z,00000200,01000000,0003.23,0001.72,0000.91,-000.27,0000.05,0000.07,0000.01,0000.61,0000.40,19.1,25.3,01.0,00.7,0667.1,31.0
2021-09-04T14:10:00Z,00000200,01000000,0002.21,0001.94,0001.07,0000.01,0000.16,0000.15,0000.91,0000.61,0000.48,19.1,25.3,01.0,00.7,0667.1,31.0
2021-09-04T14:11:00Z,00000200,01000000,0002.74,0001.79,0001.00,0000.14,0000.06,0000.27,0000.49,0000.50,0000.28,19.1,25.3,00.9,00.6,0667.1,31.0
2021-09-04T14:12:00Z,00000200,01000000,0003.03,0001.67,0001.00,0000.99,0000.54,0000.33,0000.50,0000.32,0000.39,19.1,25.3,01.0,00.7,0667.1,31.0
2021-09-04T14:13:00Z,00000200,01000000,0002.43,0001.56,0000.94,0000.21,0000.10,0000.25,0000.92,0000.91,0000.72,19.1,25.3,00.9,00.6,0667.1,31.0
2021-09-04T14:14:00Z,00000200,01000000,0003.04,0001.75,0001.24,0000.33,0000.39,0000.54,0000.49,0000.17,0000.57,19.2,25.3,00.9,00.6,0667.1,31.1
2021-09-04T14:15:00Z,00000200,01000000,0001.39,0001.68,0000.88,-000.59,0000.02,0000.38,0000.37,0000.67,0000.33,19.3,25.4,00.8,00.6,0667.1,31.1
2021-09-04T14:16:00Z,00000200,01000000,0003.62,0001.74,0001.31,-000.13,0000.16,0000.56,0000.60,0000.35,0000.23,19.4,25.4,00.8,00.6,0667.1,31.1
2021-09-04T14:17:00Z,00000200,01000000,0002.84,0002.10,0001.08,0000.36,0000.01,0000.18,0000.39,0000.71,0000.39,19.4,25.4,00.8,00.6,0667.1,31.1
2021-09-04T14:18:00Z,00000200,01000000,0003.08,0001.82,0000.90,-000.00,0000.40,0000.03,0000.81,0000.26,0000.14,19.5,25.4,00.7,00.5,0667.1,31.1
2021-09-04T14:19:00Z,00000200,01000000,0002.39,0002.20,0001.15,-000.20,0000.30,0000.55,0000.53,0000.71,0000.37,19.4,25.5,00.8,00.5,0667.1,31.1
2021-09-04T14:20:00Z,00000200,01000000,0003.41,0002.13,0001.21,-000.30,0000.38,0000.48,0000.61,0000.54,0000.61,19.4,25.4,00.8,00.5,0667.1,31.1
2021-09-04T14:21:00Z,00000200,01000000,0003.58,0002.27,0001.40,0000.00,0000.58,0000.49,0000.43,0000.53,0000.38,19.4,25.4,00.7,00.5,0667.1,31.1
2021-09-04T14:22:00Z,00000200,01000000,0002.38,0001.92,0001.19,-000.32,0000.34,0000.03,0001.08,0000.61,0000.54,19.4,25.4,00.8,00.5,0667.1,31.1
2021-09-04T14:23:00Z,00000200,01000000,0003.80,0002.02,0001.36,-000.12,0000.26,0000.23,0000.15,0000.64,0000.35,19.4,25.4,00.7,00.5,0667.1,31.1
2021-09-04T14:24:00Z,00000200,01000000,0003.39,0002.60,0000.93,-000.65,0000.43,0000.13,0000.83,0000.54,0000.50,19.4,25.4,00.6,00.4,0667.1,31.1
2021-09-04T14:25:00Z,00000200,01000000,0002.95,0001.96,0001.19,-000.31,0000.41,0000.51,0000.54,0000.40,0000.26,19.4,25.4,00.6,00.4,0667.1,31.0
2021-09-04T14:26:00Z,00000200,01000000,0003.10,0002.20,0001.52,0000.25,0000.17,0000.26,0000.41,0000.55,0000.62,19.3,25.4,00.7,00.5,0667.1,31.1
2021-09-04T14:27:00Z,00000200,01000000,0002.93,0002.54,0001.40,0000.23,0000.39,0000.17,0000.85,0000.50,0000.43,19.3,25.4,00.6,00.4,0667.2,31.0
2021-09-04T14:28:00Z,00000200,01000000,0003.80,0002.34,0001.54,0000.19,0000.58,0000.32,0000.91,0000.91,0000.94,19.4,25.4,00.5,00.4,0667.2,31.1
2021-09-04T14:29:00Z,00000200,01000000,0004.38,0002.59,0001.62,0000.56,0000.34,0000.54,0000.64,0000.61,0000.23,19.5,25.5,00.5,00.4,0667.2,31.1
2021-09-04T14:30:00Z,00000200,01000000,0004.27,0002.91,0001.58,0000.30,0000.38,0000.47,0000.56,0000.71,0000.55,19.5,25.5,00.6,00.4,0667.2,31.1
2021-09-04T14:31:00Z,00000200,01000000,0004.44,0002.53,0001.41,0000.62,0000.17,0000.56,0001.28,0000.88,0000.69,19.5,25.5,00.6,00.4,0667.2,31.1
2021-09-04T14:32:00Z,00000200,01000000,0003.75,0002.91,0001.56,0000.90,0000.27,0000.36,0000.60,0000.88,0000.48,19.5,25.5,00.6,00.4,0667.2,31.1
2021-09-04T14:33:00Z,00000200,01000000,0003.93,0002.34,0001.81,0000.21,0000.48,0000.13,0000.88,0000.97,0000.92,19.5,25.5,00.6,00.4,0667.2,31.1
2021-09-04T14:34:00Z,00000200,01000000,0003.61,0002.91,0001.82,0000.29,0000.40,0000.42,0000.82,0000.61,0000.32,19.5,25.5,00.6,00.4,0667.2,31.1
2021-09-04T14:35:00Z,00000200,01000000,0003.92,0002.71,0001.70,0000.13,0000.69,0000.36,0000.85,0000.65,0000.94,19.4,25.5,00.6,00.4,0667.2,31.1
2021-09-04T14:36:00Z,00000200,01000000,0003.58,0003.20,0002.14,0000.23,0000.24,0000.30,0000.82,0000.70,0000.27,19.4,25.5,00.7,00.5,0667.2,31.1
2021-09-04T14:37:00Z,00000200,01000000,0004.46,0002.67,0001.90,0000.25,0000.29,0000.56,0000.94,0000.80,0000.67,19.4,25.5,00.6,00.4,0667.2,31.0
2021-09-04T14:38:00Z,00000200,01000000,0004.04,0003.00,0002.09,-000.18,0000.45,0000.41,0001.06,0000.61,0000.92,19.4,25.5,00.7,00.5,0667.2,31.1
2021-09-04T14:39:00Z,00000200,01000000,0004.11,0002.79,0002.11,0000.19,0000.48,0000.39,0000.82,0001.05,0000.17,19.4,25.5,00.6,00.4,0667.1,31.1
2021-09-04T14:40:00Z,00000200,01000000,0004.35,0002.82,0001.54,0000.15,0000.06,0000.44,0000.60,0000.74,0000.72,19.4,25.5,00.7,00.5,0667.1,31.0
2021-09-04T14:41:00Z,00000200,01000000,0003.99,0002.67,0001.82,0000.35,0000.69,0000.40,0001.02,0000.89,0001.02,19.4,25.5,00.7,00.5,0667.1,31.1
2021-09-04T14:42:00Z,00000200,01000000,0004.38,0002.84,0001.60,0000.24,0000.41,0000.45,0000.72,0000.70,0000.17,19.4,25.5,00.8,00.6,0667.1,31.1
2021-09-04T14:43:00Z,00000200,01000000,0003.65,0002.71,0001.56,0000.21,0000.35,0000.46,0000.98,0001.04,0000.66,19.4,25.4,00.7,00.5,0667.1,31.1
2021-09-04T14:44:00Z,00000200,01000000,0003.12,0002.43,0001.76,0000.25,0000.33,0000.38,0000.75,0000.61,0000.64,19.3,25.4,00.6,00.4,0667.1,31.1
2021-09-04T14:45:00Z,00000200,01000000,0003.28,0002.55,0001.60,0000.60,0000.23,0000.43,0000.47,0000.57,0000.51,19.3,25.4,00.7,00.5,0667.1,31.0
2021-09-04T14:46:00Z,00000200,01000000,0003.60,0002.29,0001.84,0000.07,0000.34,0000.50,0001.30,0000.86,0000.69,19.3,25.4,00.7,00.5,0667.1,31.0
2021-09-04T14:47:00Z,00000200,01000000,0003.88,0002.27,0001.37,-000.37,0000.32,0000.70,0000.31,0000.62,0000.51,19.3,25.4,00.7,00.5,0667.1,31.0
2021-09-04T14:48:00Z,00000200,01000000,0003.82,0002.91,0001.90,0000.28,0000.02,0000.50,0000.86,0000.48,0000.53,19.3,25.4,00.6,00.4,0667.1,31.0
2021-09-04T14:49:00Z,00000200,01000000,0003.32,0002.13,0001.55,0000.18,0000.44,0000.44,0000.68,0000.61,0000.62,19.3,25.4,00.6,00.4,0667.1,31.1
2021-09-04T14:50:00Z,00000200,01000000,0003.38,0002.33,0001.72,0000.30,0000.26,0000.30,0000.83,0000.70,0000.32,19.3,25.4,00.6,00.4,0667.1,31.0
2021-09-04T14:51:00Z,00000200,01000000,0003.93,0002.32,0001.97,0000.15,0000.53,0000.43,0000.79,0000.82,0000.55,19.3,25.4,00.7,00.5,0667.1,31.0
2021-09-04T14:52:00Z,00000200,01000000,0003.63,0002.45,0001.24,0000.42,0000.46,0000.11,0000.64,0000.69,0000.40,19.3,25.4,00.7,00.5,0667.1,31.0
2021-09-04T14:53:00Z,00000200,01000000,0003.06,0002.84,0001.57,0000.45,0000.50,-000.01,0000.85,0000.77,0000.71,19.3,25.4,00.7,00.5,0667.1,31.0
2021-09-04T14:54:00Z,00000200,01000000,0003.98,0002.65,0001.62,0000.01,0000.48,0000.28,0000.83,0000.78,0000.69,19.3,25.4,00.7,00.5,0667.1,31.1
2021-09-04T14:55:00Z,00000200,01000000,0004.58,0002.39,0001.76,0000.48,0000.27,0000.29,0000.64,0000.43,0000.53,19.3,25.4,00.7,00.5,0667.2,31.1
2021-09-04T14:56:00Z,00000200,01000000,0004.25,0002.65,0001.99,0000.45,0000.63,0000.57,0000.93,0000.94,0000.55,19.3,25.4,00.6,00.4,0667.1,31.1
2021-09-04T14:57:00Z,00000200,41000000,,,,,,,0000.45,0000.37,0000.17,19.3,25.5,00.9,00.6,0667.1,31.0
2021-09-04T14:58:00Z,00000200,61000000,,,,,,,-000.05,0000.20,0000.37,19.1,25.5,00.6,00.4,0666.2,31.1
2021-09-04T14:59:00Z,00000200,21000000,,,,,,,-000.11,-000.20,-000.13,19.1,25.6,00.6,00.4,0666.2,31.1
